W4SNA-4 Weather Reports


Display with metric or nautical units.
time (UTC)temp
F
wind
direction
speed
MPH
gust
MPH
rain 1hr
in
rain 24hr
in
rain mn
in
humidity
%
barometer
mb
20260510161231 77 0 0.0 0.0 0.00 0.00 0.00 45 1011.8
20260510161004 77 0 0.0 0.0 0.00 0.00 0.00 46 1011.8
20260510160611 77 0 0.0 0.0 0.00 0.00 0.00 46 1011.8
20260510160108 77 0 0.0 0.0 0.00 0.00 0.00 47 1011.8
20260510155612 76 0 0.0 0.0 0.00 0.00 0.00 47 1011.8
20260510155108 76 0 0.0 0.0 0.00 0.00 0.00 48 1011.9
20260510154609 76 0 0.0 0.0 0.00 0.00 0.00 54 1011.9
20260510154109 76 0 0.0 0.0 0.00 0.00 0.00 48 1011.9
20260510153608 76 0 0.0 0.0 0.00 0.00 0.00 48 1011.8
20260510153109 76 0 0.0 0.0 0.00 0.00 0.00 49 1011.8
20260510152608 76 0 0.0 0.0 0.00 0.00 0.00 50 1011.8
20260510152108 76 0 0.0 0.0 0.00 0.00 0.00 50 1011.9
20260510151609 76 0 0.0 0.0 0.00 0.00 0.00 53 1011.9
20260510151108 76 0 0.0 0.0 0.00 0.00 0.00 55 1011.9
20260510150611 75 0 0.0 0.0 0.00 0.00 0.00 59 1011.8
20260510150109 74 0 0.0 0.0 0.00 0.00 0.00 59 1011.8
20260510145608 74 0 0.0 0.0 0.00 0.00 0.00 60 1011.8
20260510145108 73 0 0.0 0.0 0.00 0.00 0.00 64 1011.9
20260510144609 72 0 0.0 0.0 0.00 0.00 0.00 66 1011.9
20260510144111 71 0 0.0 0.0 0.00 0.00 0.00 65 1011.9
20260510143611 71 0 0.0 0.0 0.00 0.00 0.00 64 1011.9
20260510143210 71 0 0.0 0.0 0.00 0.00 0.00 68 1011.9
20260510143109 71 0 0.0 0.0 0.00 0.00 0.00 68 1011.9
20260510142608 70 0 0.0 0.0 0.00 0.00 0.00 69 1011.9
20260510142108 69 0 0.0 0.0 0.00 0.00 0.00 72 1011.9
20260510141609 69 0 0.0 0.0 0.00 0.00 0.00 72 1011.9
20260510141114 68 0 0.0 0.0 0.00 0.00 0.00 71 1011.9
20260510140608 68 0 0.0 0.0 0.00 0.00 0.00 76 1011.8
20260510140108 67 0 0.0 0.0 0.00 0.00 0.00 76 1011.8
20260510135608 67 0 0.0 0.0 0.00 0.00 0.00 80 1011.8
20260510135108 66 0 0.0 0.0 0.00 0.00 0.00 80 1011.7
20260510134608 65 0 0.0 0.0 0.00 0.00 0.00 81 1011.7
20260510134112 65 0 0.0 0.0 0.00 0.00 0.00 82 1011.7
20260510133618 65 0 0.0 0.0 0.00 0.00 0.00 83 1011.6
20260510133109 64 0 0.0 0.0 0.00 0.00 0.00 83 1011.6
20260510132609 64 0 0.0 0.0 0.00 0.00 0.00 83 1011.6
20260510132111 64 0 0.0 0.0 0.00 0.00 0.00 84 1011.7
20260510131612 63 0 0.0 0.0 0.00 0.00 0.00 85 1011.7
20260510131109 63 0 0.0 0.0 0.00 0.00 0.00 85 1011.7
20260510130619 63 0 0.0 0.0 0.00 0.00 0.00 84 1011.5
20260510130108 62 0 0.0 0.0 0.00 0.00 0.00 85 1011.5
20260510125625 62 0 0.0 0.0 0.00 0.00 0.00 85 1011.5
20260510125120 62 0 0.0 0.0 0.00 0.00 0.00 87 1011.5
20260510124612 62 0 0.0 0.0 0.00 0.00 0.00 88 1011.5
20260510124108 62 0 0.0 0.0 0.00 0.00 0.00 89 1011.5
20260510123612 61 0 0.0 0.0 0.00 0.00 0.00 90 1011.3
20260510123108 61 0 0.0 0.0 0.00 0.00 0.00 91 1011.3
20260510122612 61 0 0.0 0.0 0.00 0.00 0.00 91 1011.3
20260510122108 62 0 0.0 0.0 0.00 0.00 0.00 91 1010.9
20260510121612 62 0 0.0 0.0 0.00 0.00 0.00 91 1010.9
20260510121111 62 0 0.0 0.0 0.00 0.00 0.00 90 1010.9
20260510120612 62 0 0.0 0.0 0.00 0.00 0.00 87 1010.4
20260510120108 61 0 0.0 0.0 0.00 0.00 0.00 83 1010.4
20260510115613 61 0 0.0 0.0 0.00 0.00 0.00 84 1010.4
20260510115119 61 0 0.0 0.0 0.00 0.00 0.00 87 1010.4
20260510114622 61 0 0.0 0.0 0.00 0.00 0.00 89 1010.4
20260510114109 62 0 0.0 0.0 0.00 0.00 0.00 90 1010.4
20260510113630 62 0 0.0 0.0 0.00 0.00 0.00 89 1010.2
20260510113109 62 0 0.0 0.0 0.00 0.00 0.00 87 1010.2
20260510112612 62 0 0.0 0.0 0.00 0.00 0.00 84 1010.2
20260510112119 62 0 0.0 0.0 0.00 0.00 0.00 81 1009.9
20260510111620 62 0 0.0 0.0 0.00 0.00 0.00 82 1009.9
20260510111109 61 0 0.0 0.0 0.00 0.00 0.00 82 1009.9
20260510110619 61 0 0.0 0.0 0.00 0.00 0.00 82 1009.7
20260510110108 61 0 0.0 0.0 0.00 0.00 0.00 83 1009.7
20260510105610 61 0 0.0 0.0 0.00 0.00 0.00 84 1009.7
20260510105113 61 0 0.0 0.0 0.00 0.00 0.00 84 1009.4
20260510104611 60 0 0.0 0.0 0.00 0.00 0.00 87 1009.4
20260510104108 60 0 0.0 0.0 0.00 0.00 0.00 91 1009.4
20260510103612 60 0 0.0 0.0 0.00 0.00 0.00 91 1009.3
20260510103111 60 0 0.0 0.0 0.00 0.00 0.00 93 1009.3
20260510102620 60 0 0.0 0.0 0.00 0.00 0.00 95 1009.3
20260510102120 60 0 0.0 0.0 0.00 0.00 0.00 95 1009.2
20260510101620 60 0 0.0 0.0 0.00 0.00 0.00 95 1009.2
20260510101111 60 0 0.0 0.0 0.00 0.00 0.00 95 1009.2
20260510100623 60 0 0.0 0.0 0.00 0.00 0.00 95 1008.8
20260510100110 60 0 0.0 0.0 0.00 0.00 0.00 95 1008.8
20260510095608 60 0 0.0 0.0 0.00 0.00 0.00 95 1008.8
20260510095119 60 0 0.0 0.0 0.00 0.00 0.00 95 1008.8
20260510094610 60 0 0.0 0.0 0.00 0.00 0.00 95 1008.8
20260510093841 60 0 0.0 0.0 0.00 0.00 0.00 94 1008.7
20260510093338 61 0 0.0 0.0 0.00 0.00 0.00 94 1008.7
20260510092840 61 0 0.0 0.0 0.00 0.00 0.00 94 1008.7
20260510092341 61 0 0.0 0.0 0.00 0.00 0.00 94 1008.6
20260510091837 61 0 0.0 0.0 0.00 0.00 0.00 94 1008.6
20260510091338 61 0 0.0 0.0 0.00 0.00 0.00 94 1008.6
20260510090837 61 0 0.0 0.0 0.00 0.00 0.00 94 1008.3
20260510090337 61 0 0.0 0.0 0.00 0.00 0.00 93 1008.3
20260510085838 61 0 0.0 0.0 0.00 0.00 0.00 93 1008.3
20260510085338 61 0 0.0 0.0 0.00 0.00 0.00 93 1008.3
20260510084840 61 0 0.0 0.0 0.00 0.00 0.00 93 1008.3
20260510084341 62 0 0.0 0.0 0.00 0.00 0.00 93 1008.3
20260510083838 62 0 0.0 0.0 0.00 0.00 0.00 93 1008.1
20260510083337 62 0 0.0 0.0 0.00 0.00 0.00 93 1008.1
20260510082839 62 0 0.0 0.0 0.00 0.00 0.00 93 1008.1
20260510082337 62 0 0.0 0.0 0.00 0.00 0.00 93 1007.9
20260510081837 62 0 0.0 0.0 0.00 0.00 0.00 93 1007.9
20260510081139 62 0 0.0 0.0 0.00 0.00 0.00 92 1007.9
20260510080645 62 0 0.0 0.0 0.00 0.00 0.00 92 1007.7
20260510080144 62 0 0.0 0.0 0.00 0.00 0.00 92 1007.7
20260510075643 62 0 0.0 0.0 0.00 0.00 0.00 92 1007.7
20260510075143 62 0 0.0 0.0 0.00 0.00 0.00 92 1007.7
20260510074635 62 0 0.0 0.0 0.00 0.00 0.00 92 1007.7
20260510074137 62 0 0.0 0.0 0.00 0.00 0.00 92 1007.7
20260510073634 62 0 0.0 0.0 0.00 0.00 0.00 92 1007.6
20260510073139 62 0 0.0 0.0 0.00 0.00 0.00 91 1007.6
20260510072635 62 0 0.0 0.0 0.00 0.00 0.00 91 1007.6
20260510072139 63 0 0.0 0.0 0.00 0.00 0.00 91 1007.5
20260510071635 63 0 0.0 0.0 0.00 0.00 0.00 91 1007.5
20260510071137 63 0 0.0 0.0 0.00 0.00 0.00 91 1007.5
20260510070635 63 0 0.0 0.0 0.00 0.00 0.00 91 1007.6
20260510070136 63 0 0.0 0.0 0.00 0.00 0.00 90 1007.6
20260510065640 63 0 0.0 0.0 0.00 0.00 0.00 90 1007.6
20260510064743 63 0 0.0 0.0 0.00 0.00 0.00 90 1007.4
20260510064305 63 0 0.0 0.0 0.00 0.00 0.00 90 1007.4
20260510063802 63 0 0.0 0.0 0.00 0.00 0.00 90 1007.7
20260510063245 63 0 0.0 0.0 0.00 0.00 0.00 90 1007.7
20260510062747 63 0 0.0 0.0 0.00 0.00 0.00 90 1007.7
20260510062249 63 0 0.0 0.0 0.00 0.00 0.00 90 1007.7
20260510061749 63 0 0.0 0.0 0.00 0.00 0.00 89 1007.7
20260510061243 63 0 0.0 0.0 0.00 0.00 0.00 89 1007.7
20260510060743 63 0 0.0 0.0 0.00 0.00 0.00 89 1007.8
20260510060246 63 0 0.0 0.0 0.00 0.00 0.00 90 1007.8
20260510055749 63 0 0.0 0.0 0.00 0.00 0.00 90 1007.8
20260510055240 63 0 0.0 0.0 0.00 0.00 0.00 90 1007.8
20260510055114 63 0 0.0 0.0 0.00 0.00 0.00 90 1007.8
20260510054743 63 0 0.0 0.0 0.00 0.00 0.00 90 1007.8
20260510054241 63 0 0.0 0.0 0.00 0.00 0.00 90 1007.8
20260510053746 63 0 0.0 0.0 0.00 0.00 0.00 89 1007.7
20260510053240 63 0 0.0 0.0 0.00 0.00 0.00 89 1007.7
20260510052740 63 0 0.0 0.0 0.00 0.00 0.00 89 1007.7
20260510052244 63 0 0.0 0.0 0.00 0.00 0.00 89 1008.0
20260510051747 64 0 0.0 0.0 0.00 0.00 0.00 89 1008.0
20260510051240 64 0 0.0 0.0 0.00 0.00 0.00 89 1008.0
20260510050740 64 0 0.0 0.0 0.00 0.00 0.00 89 1008.0
20260510050243 64 0 0.0 0.0 0.00 0.00 0.00 89 1008.0
20260510045746 64 0 0.0 0.0 0.00 0.00 0.00 88 1008.0
20260510045240 64 0 0.0 0.0 0.00 0.00 0.00 88 1008.0
20260510044741 64 0 0.0 0.0 0.00 0.00 0.00 88 1008.0
20260510044240 64 0 0.0 0.0 0.00 0.00 0.00 88 1008.0
20260510043746 64 0 0.0 0.0 0.00 0.00 0.00 88 1008.2
20260510043241 64 0 0.0 0.0 0.00 0.00 0.00 88 1008.2
20260510042741 64 0 0.0 0.0 0.00 0.00 0.00 88 1008.2
20260510042244 64 0 0.0 0.0 0.00 0.00 0.00 88 1008.2
20260510041746 64 0 0.0 0.0 0.00 0.00 0.00 88 1008.2
20260510041240 64 0 0.0 0.0 0.00 0.00 0.00 88 1008.2
20260510040740 64 0 0.0 0.0 0.00 0.00 0.00 88 1008.2
20260510040003 64 0 0.0 0.0 0.00 0.00 0.00 87 1008.2
20260510035700 64 0 0.0 0.0 0.00 0.00 0.00 87 1008.2
20260510035501 64 0 0.0 0.0 0.00 0.00 0.00 87 1008.2
20260510035002 64 0 0.0 0.0 0.00 0.00 0.00 87 1008.2
20260510034502 64 0 0.0 0.0 0.00 0.00 0.00 87 1008.2
20260510034008 65 0 0.0 0.0 0.00 0.00 0.00 87 1008.0
20260510033526 65 0 0.0 0.0 0.00 0.00 0.00 87 1008.0
20260510033002 65 0 0.0 0.0 0.00 0.00 0.00 87 1008.0
20260510032504 65 0 0.0 0.0 0.00 0.00 0.00 86 1008.1
20260510032002 65 0 0.0 0.0 0.00 0.00 0.00 86 1008.1
20260510031502 65 0 0.0 0.0 0.00 0.00 0.00 86 1008.1
20260510031007 65 0 0.0 0.0 0.00 0.00 0.00 86 1008.0
20260510030502 65 0 0.0 0.0 0.00 0.00 0.00 86 1008.0
20260510030002 65 0 0.0 0.0 0.00 0.00 0.00 86 1008.0
20260510025501 65 0 0.0 0.0 0.00 0.00 0.00 85 1007.9
20260510025002 65 0 0.0 0.0 0.00 0.00 0.00 85 1007.9
20260510024502 65 0 0.0 0.0 0.00 0.00 0.00 85 1007.9
20260510024001 65 0 0.0 0.0 0.00 0.00 0.00 85 1007.8
20260510023502 66 0 0.0 0.0 0.00 0.00 0.00 85 1007.8
20260510023001 66 0 0.0 0.0 0.00 0.00 0.00 84 1007.8
20260510022501 66 0 0.0 0.0 0.00 0.00 0.00 84 1007.8
20260510022002 66 0 0.0 0.0 0.00 0.00 0.00 84 1007.8
20260510021501 66 0 0.0 0.0 0.00 0.00 0.00 84 1007.8
20260510021006 66 0 0.0 0.0 0.00 0.00 0.00 84 1007.7
20260510020505 66 0 0.0 0.0 0.00 0.00 0.00 84 1007.7
20260510020001 66 0 0.0 0.0 0.00 0.00 0.00 84 1007.7
20260510015505 66 0 0.0 0.0 0.00 0.00 0.00 83 1007.4
20260510015003 66 0 0.0 0.0 0.00 0.00 0.00 83 1007.4
20260510014505 66 0 0.0 0.0 0.00 0.00 0.00 83 1007.4
20260510014006 66 0 0.0 0.0 0.00 0.00 0.00 83 1007.2
20260510013506 66 0 0.0 0.0 0.00 0.00 0.00 83 1007.2
20260510013001 66 0 0.0 0.0 0.00 0.00 0.00 83 1007.2
20260510012505 66 0 0.0 0.0 0.00 0.00 0.00 82 1006.9
20260510012002 66 0 0.0 0.0 0.00 0.00 0.00 82 1006.9
20260510011505 66 0 0.0 0.0 0.00 0.00 0.00 82 1006.9
20260510011006 66 0 0.0 0.0 0.00 0.00 0.00 82 1006.8
20260510010506 67 0 0.0 0.0 0.00 0.00 0.00 82 1006.8
20260510010002 67 0 0.0 0.0 0.00 0.00 0.00 82 1006.8
20260510005508 67 0 0.0 0.0 0.00 0.00 0.00 81 1006.5
20260510005001 67 0 0.0 0.0 0.00 0.00 0.00 81 1006.5
20260510004501 67 0 0.0 0.0 0.00 0.00 0.00 81 1006.5
20260510004049 67 0 0.0 0.0 0.00 0.00 0.00 80 1006.3
20260510004010 67 0 0.0 0.0 0.00 0.00 0.00 80 1006.3
20260510003505 67 0 0.0 0.0 0.00 0.00 0.00 80 1006.3
20260510003003 68 0 0.0 0.0 0.00 0.00 0.00 79 1006.3
20260510002507 68 0 0.0 0.0 0.00 0.00 0.00 79 1006.2
20260510002001 68 0 0.0 0.0 0.00 0.00 0.00 79 1006.2
20260510001514 68 0 0.0 0.0 0.00 0.00 0.00 79 1006.2
20260510001002 68 0 0.0 0.0 0.00 0.00 0.00 79 1006.1
20260510000519 68 0 0.0 1.0 0.00 0.00 0.00 78 1006.1
20260510000002 68 0 0.0 1.0 0.00 0.00 0.00 78 1006.1
20260509235502 68 0 0.0 0.0 0.00 0.00 0.00 78 1005.9
20260509235001 68 0 0.0 1.0 0.00 0.00 0.00 78 1005.9
20260509234502 69 0 0.0 1.0 0.00 0.00 0.00 78 1005.9
20260509234001 69 0 0.0 0.0 0.00 0.00 0.00 77 1005.8
20260509233507 69 0 0.0 0.0 0.00 0.00 0.00 77 1005.8
20260509233003 69 0 0.0 0.0 0.00 0.00 0.00 76 1005.8
20260509232439 69 0 0.0 0.0 0.00 0.00 0.00 76 1006.0
20260509231945 69 0 0.0 0.0 0.00 0.00 0.00 76 1006.0
20260509231439 70 0 0.0 0.0 0.00 0.00 0.00 75 1006.0
20260509230810 70 0 0.0 2.0 0.00 0.00 0.00 75 1005.6
20260509230311 70 0 0.0 1.0 0.00 0.00 0.00 75 1005.6
20260509225819 70 0 0.0 0.0 0.00 0.00 0.00 75 1005.6
20260509225311 70 0 0.0 0.0 0.00 0.00 0.00 74 1005.7
20260509224811 70 0 0.0 0.0 0.00 0.00 0.00 75 1005.7
20260509224314 70 0 0.0 0.0 0.00 0.00 0.00 73 1005.7
20260509223810 71 0 0.0 0.0 0.00 0.00 0.00 73 1005.4
20260509223319 71 0 0.0 0.0 0.00 0.00 0.00 73 1005.4
20260509222820 71 0 0.0 0.0 0.00 0.00 0.00 74 1005.4
20260509222310 71 0 0.0 0.0 0.00 0.00 0.00 73 1005.2
20260509221336 71 0 0.0 0.0 0.00 0.00 0.00 73 1005.2
20260509220836 71 0 0.0 0.0 0.00 0.00 0.00 72 1005.3
20260509220336 71 0 0.0 0.0 0.00 0.00 0.00 74 1005.3
20260509215836 71 0 0.0 1.0 0.00 0.00 0.00 71 1005.3
20260509215336 71 0 0.0 1.0 0.00 0.00 0.00 71 1005.4
20260509214837 71 0 0.0 0.0 0.00 0.00 0.00 73 1005.4
20260509214336 71 0 0.0 1.0 0.00 0.00 0.00 70 1005.4
20260509213839 71 0 0.0 1.0 0.00 0.00 0.00 70 1005.2
20260509213019 72 0 0.0 0.0 0.00 0.00 0.00 71 1005.2
20260509212524 72 0 0.0 0.0 0.00 0.00 0.00 75 1005.2
20260509212025 72 0 0.0 0.0 0.00 0.00 0.00 71 1005.2
20260509211520 72 0 0.0 0.0 0.00 0.00 0.00 71 1005.2
20260509211020 72 0 0.0 0.0 0.00 0.00 0.00 72 1005.2
20260509210519 72 0 0.0 0.0 0.00 0.00 0.00 75 1005.2
20260509210020 71 0 0.0 0.0 0.00 0.00 0.00 70 1005.2
20260509205519 71 0 0.0 0.0 0.00 0.00 0.00 72 1005.2
20260509205019 71 0 0.0 0.0 0.00 0.00 0.00 71 1005.1
20260509204520 71 0 0.0 0.0 0.00 0.00 0.00 70 1005.1
20260509204021 71 0 0.0 0.0 0.00 0.00 0.00 71 1005.1
20260509203519 71 0 0.0 0.0 0.00 0.00 0.00 71 1005.0
20260509203020 71 0 0.0 0.0 0.00 0.00 0.00 71 1005.0
20260509202519 71 0 0.0 0.0 0.00 0.00 0.00 71 1005.0
20260509202029 71 0 0.0 0.0 0.00 0.00 0.00 70 1005.2
20260509201520 71 0 0.0 0.0 0.00 0.00 0.00 71 1005.2
20260509201019 72 0 0.0 0.0 0.00 0.00 0.00 73 1005.2
20260509200031 72 0 0.0 0.0 0.00 0.00 0.00 71 1005.3
20260509195531 72 0 0.0 1.0 0.00 0.00 0.00 70 1005.3
20260509195031 72 0 0.0 1.0 0.00 0.00 0.00 70 1005.4
20260509194531 72 0 0.0 1.0 0.00 0.00 0.00 71 1005.4
20260509194031 72 0 0.0 2.0 0.00 0.00 0.00 71 1005.4
20260509193531 72 0 0.0 2.0 0.00 0.00 0.00 69 1005.6
20260509192751 72 0 0.0 0.0 0.00 0.00 0.00 73 1005.6
20260509192251 71 0 0.0 0.0 0.00 0.00 0.00 71 1005.7
20260509191750 71 0 0.0 0.0 0.00 0.00 0.00 71 1005.7
20260509191251 71 0 0.0 0.0 0.00 0.00 0.00 70 1005.7
20260509190754 71 0 0.0 0.0 0.00 0.00 0.00 72 1005.8
20260509185818 70 0 0.0 0.0 0.00 0.00 0.00 75 1005.8
20260509185310 70 0 0.0 0.0 0.00 0.00 0.00 74 1005.9
20260509184814 70 0 0.0 0.0 0.00 0.00 0.00 74 1005.9
20260509184312 70 0 0.0 0.0 0.00 0.00 0.00 74 1005.9
20260509183812 70 0 0.0 0.0 0.00 0.00 0.00 74 1006.2
20260509183310 70 0 0.0 0.0 0.00 0.00 0.00 75 1006.2
20260509182818 69 0 0.0 0.0 0.00 0.00 0.00 76 1006.2
20260509182318 69 0 0.0 0.0 0.00 0.00 0.00 78 1006.2
20260509181815 69 0 0.0 0.0 0.00 0.00 0.00 76 1006.2
20260509181310 69 0 0.0 0.0 0.00 0.00 0.00 77 1006.2
20260509180704 69 0 0.0 0.0 0.00 0.00 0.00 78 1006.3
20260509180014 68 0 0.0 0.0 0.00 0.00 0.00 80 1006.3
20260509175515 67 0 0.0 1.0 0.00 0.00 0.00 77 1006.3
20260509175017 67 0 0.0 1.0 0.00 0.00 0.00 79 1006.5
20260509174521 67 0 0.0 0.0 0.00 0.00 0.00 80 1006.5
20260509174020 67 0 0.0 0.0 0.00 0.00 0.00 77 1006.5
20260509173515 67 0 0.0 0.0 0.00 0.00 0.00 77 1006.7
20260509173017 67 0 0.0 0.0 0.00 0.00 0.00 78 1006.7
20260509172518 67 0 0.0 0.0 0.00 0.00 0.00 77 1006.7
20260509172015 67 0 0.0 0.0 0.00 0.00 0.00 78 1006.8
20260509171519 67 0 0.0 0.0 0.00 0.00 0.00 78 1006.8
20260509171015 67 0 0.0 0.0 0.00 0.00 0.00 76 1006.8
20260509170515 67 0 0.0 0.0 0.00 0.00 0.00 76 1006.9
20260509170015 67 0 0.0 0.0 0.00 0.00 0.00 76 1006.9
20260509165515 67 0 0.0 0.0 0.00 0.00 0.00 76 1006.9
20260509165015 67 0 0.0 0.0 0.00 0.00 0.00 77 1007.1
20260509164516 67 0 0.0 0.0 0.00 0.00 0.00 76 1007.1
20260509164023 67 0 0.0 0.0 0.00 0.00 0.00 76 1007.1
20260509163515 67 0 0.0 0.0 0.00 0.00 0.00 75 1007.3
20260509163014 67 0 0.0 0.0 0.00 0.00 0.00 77 1007.3
20260509162515 67 0 0.0 0.0 0.00 0.00 0.00 75 1007.3
20260509162015 67 0 0.0 0.0 0.00 0.00 0.00 75 1007.5
20260509161516 68 0 0.0 0.0 0.00 0.00 0.00 76 1007.5